OE9GTV Weather Reports


time (UTC)temp
F
wind
direction
speed
knots
gust
knots
rain 1hr
in
rain 24hr
in
rain mn
in
humidity
%
barometer
mb
20260502204112 62 118 2.6 7.8 0.00 0.00 0.00 50 1014.1
20260502203111 62 231 1.7 8.7 0.00 0.00 0.00 51 1014.2
20260502202111 61 360 0.9 3.5 0.00 0.00 0.00 52 1014.2
20260502201111 61 360 0.9 3.5 0.00 0.00 0.00 53 1014.2
20260502200111 61 360 0.0 1.7 0.00 0.00 0.00 53 1014.2
20260502195111 62 360 0.9 3.5 0.00 0.00 0.00 52 1014.3
20260502194111 62 360 0.0 2.6 0.00 0.00 0.00 51 1014.2
20260502193111 63 360 1.7 4.3 0.00 0.00 0.00 51 1014.1
20260502192111 64 360 0.0 0.0 0.00 0.00 0.00 50 1014.0
20260502191111 65 360 0.0 0.0 0.00 0.00 0.00 48 1014.0
20260502190111 66 360 0.0 0.0 0.00 0.00 0.00 46 1013.8
20260502185111 67 360 0.0 0.0 0.00 0.00 0.00 45 1013.7
20260502184111 68 360 0.0 0.0 0.00 0.00 0.00 43 1013.7
20260502183116 69 360 0.0 0.0 0.00 0.00 0.00 42 1013.6
20260502182116 71 360 0.0 0.0 0.00 0.00 0.00 40 1013.5
20260502181115 72 360 0.0 0.0 0.00 0.00 0.00 37 1013.4
20260502180116 73 360 0.0 0.0 0.00 0.00 0.00 35 1013.4
20260502170115 78 13 0.0 3.5 0.00 0.00 0.00 28 1013.6
20260502164115 78 336 0.0 2.6 0.00 0.00 0.00 27 1013.7
20260502163115 78 348 1.7 6.1 0.00 0.00 0.00 27 1013.8
20260502162115 77 29 2.6 8.7 0.00 0.00 0.00 29 1014.0
20260502161115 77 28 3.5 11.3 0.00 0.00 0.00 28 1014.1
20260502160115 77 5 4.3 10.4 0.00 0.00 0.00 27 1014.2
20260502152115 77 48 4.3 9.6 0.00 0.00 0.00 30 1014.5
20260502151115 77 23 4.3 11.3 0.00 0.00 0.00 30 1014.7
20260502150115 77 45 4.3 10.4 0.00 0.00 0.00 30 1014.7
20260502140114 77 36 3.5 9.6 0.00 0.00 0.00 34 1015.5
20260502130113 76 48 0.0 0.0 0.00 0.00 0.00 36 1016.3
20260502123113 76 28 5.2 11.3 0.00 0.00 0.00 39 1016.7
20260502122113 76 36 2.6 8.7 0.00 0.00 0.00 42 1016.8
20260502121113 75 48 3.5 9.6 0.00 0.00 0.00 43 1017.0
20260502120113 75 25 3.5 9.6 0.00 0.00 0.00 43 1017.3
20260502115113 74 24 3.5 8.7 0.00 0.00 0.00 44 1017.4
20260502114113 74 36 2.6 6.1 0.00 0.00 0.00 46 1017.6
20260502113113 73 331 1.7 5.2 0.00 0.00 0.00 44 1017.7
20260502112113 73 331 1.7 5.2 0.00 0.00 0.00 42 1017.9
20260502111113 72 325 3.5 7.0 0.00 0.00 0.00 43 1018.0
20260502110113 72 355 1.7 5.2 0.00 0.00 0.00 44 1018.2
20260502105113 72 331 3.5 7.0 0.00 0.00 0.00 43 1018.3
20260502104113 72 28 2.6 7.0 0.00 0.00 0.00 44 1018.4
20260502103112 71 338 1.7 5.2 0.00 0.00 0.00 45 1018.6
20260502102113 71 327 3.5 8.7 0.00 0.00 0.00 46 1018.7
20260502101112 71 9 1.7 7.0 0.00 0.00 0.00 50 1018.9
20260502100112 71 5 0.0 6.1 0.00 0.00 0.00 49 1019.0
20260502091112 69 120 2.6 7.0 0.00 0.00 0.00 51 1019.5
20260502090112 69 148 2.6 6.1 0.00 0.00 0.00 51 1019.6
20260502071111 55 30 0.9 0.9 0.00 0.00 0.00 77 1020.4
20260502070111 53 30 0.9 0.9 0.00 0.00 0.00 79 1020.5
20260502065111 52 30 0.9 0.9 0.00 0.00 0.00 79 1020.7
20260502064111 51 30 0.9 0.9 0.00 0.00 0.00 79 1020.7
20260502063111 51 30 0.9 0.9 0.00 0.00 0.00 79 1020.7
20260502062111 50 30 0.9 0.9 0.00 0.00 0.00 79 1020.8
20260502061111 50 30 0.9 0.9 0.00 0.00 0.00 79 1020.8
20260502060111 49 30 0.9 0.9 0.00 0.00 0.00 78 1020.8
20260502055111 49 30 0.9 0.9 0.00 0.00 0.00 78 1020.8
20260502054111 49 30 0.9 0.9 0.00 0.00 0.00 77 1020.8
20260502053110 49 30 0.9 0.9 0.00 0.00 0.00 77 1020.8
20260502052110 49 30 0.9 0.9 0.00 0.00 0.00 77 1020.8
20260502051110 49 30 0.9 0.9 0.00 0.00 0.00 77 1020.7
20260502050111 49 30 0.9 0.9 0.00 0.00 0.00 76 1020.7
20260502045110 49 30 0.9 0.9 0.00 0.00 0.00 76 1020.6
20260502044110 49 30 0.9 0.9 0.00 0.00 0.00 75 1020.6
20260502043110 49 30 0.9 0.9 0.00 0.00 0.00 75 1020.6
20260502042110 49 30 0.9 0.9 0.00 0.00 0.00 75 1020.6
20260502041110 49 30 0.9 0.9 0.00 0.00 0.00 74 1020.6
20260502040110 50 30 0.9 0.9 0.00 0.00 0.00 74 1020.6
20260502035110 50 30 0.9 0.9 0.00 0.00 0.00 74 1020.5
20260502034110 50 30 0.9 0.9 0.00 0.00 0.00 73 1020.5
20260502033110 50 30 0.9 0.9 0.00 0.00 0.00 73 1020.5
20260502032110 50 30 0.9 0.9 0.00 0.00 0.00 73 1020.4
20260502031109 50 30 0.9 0.9 0.00 0.00 0.00 72 1020.5
20260502030110 50 30 0.9 0.9 0.00 0.00 0.00 72 1020.6
20260502025109 51 30 0.9 0.9 0.00 0.00 0.00 71 1020.7
20260502024109 51 30 0.9 0.9 0.00 0.00 0.00 71 1020.7
20260502023109 51 30 0.9 0.9 0.00 0.00 0.00 70 1020.6
20260502022114 51 30 0.9 0.9 0.00 0.00 0.00 70 1020.6
20260502021114 51 30 0.9 0.9 0.00 0.00 0.00 70 1020.5
20260502020114 51 30 0.9 0.9 0.00 0.00 0.00 70 1020.6
20260502015115 52 30 0.9 0.9 0.00 0.00 0.00 69 1020.6
20260502014114 52 30 0.9 0.9 0.00 0.00 0.00 69 1020.6
20260502013114 52 30 0.9 0.9 0.00 0.00 0.00 68 1020.6
20260502012114 52 30 0.9 0.9 0.00 0.00 0.00 68 1020.8
20260502011114 53 30 0.9 0.9 0.00 0.00 0.00 68 1020.7
20260502010114 53 30 0.9 0.9 0.00 0.00 0.00 67 1020.7
20260502005114 53 30 0.9 0.9 0.00 0.00 0.00 67 1020.7
20260502004114 53 30 0.9 0.9 0.00 0.00 0.00 66 1020.8
20260502003114 53 30 0.9 0.9 0.00 0.00 0.00 65 1020.9
20260502002114 54 30 0.9 0.9 0.00 0.00 0.00 65 1020.9
20260502001113 54 30 0.9 0.9 0.00 0.00 0.00 65 1020.9
20260502000113 54 30 0.9 0.9 0.00 0.00 0.00 64 1020.9
20260501235114 54 30 0.9 0.9 0.00 0.00 0.00 64 1021.0
20260501234113 55 30 0.9 0.9 0.00 0.00 0.00 63 1020.9
20260501233113 55 30 0.9 0.9 0.00 0.00 0.00 62 1021.1
20260501232113 55 30 0.9 0.9 0.00 0.00 0.00 62 1021.0
20260501231113 55 30 0.9 0.9 0.00 0.00 0.00 61 1021.0
20260501230113 56 30 0.9 0.9 0.00 0.00 0.00 60 1021.1
20260501225114 56 30 0.9 0.9 0.00 0.00 0.00 59 1021.0
20260501224114 57 30 0.9 0.9 0.00 0.00 0.00 57 1021.0
20260501223113 58 30 0.9 0.9 0.00 0.00 0.00 57 1021.1
20260501222113 58 30 0.9 0.9 0.00 0.00 0.00 56 1021.1
20260501221113 59 30 0.9 0.9 0.00 0.00 0.00 55 1021.1
20260501220113 59 30 0.9 0.9 0.00 0.00 0.00 55 1021.0
20260501215113 59 30 0.9 0.9 0.00 0.00 0.00 54 1021.0
20260501214113 60 30 0.9 0.9 0.00 0.00 0.00 54 1021.0
20260501213113 60 30 0.9 0.9 0.00 0.00 0.00 53 1020.9
20260501212112 60 30 0.9 0.9 0.00 0.00 0.00 53 1021.0
20260501211112 61 30 0.9 0.9 0.00 0.00 0.00 52 1020.9
20260501210113 61 30 0.9 0.9 0.00 0.00 0.00 52 1020.7
20260501205112 61 30 0.9 0.9 0.00 0.00 0.00 51 1020.8